Weather Roundup
Issued by NWS Chicago, IL

Home | Current Version | Previous Version | Text Only | Print | Product List | Glossary Off
Versions: 1 2 3 4 5 6 7 8 9 10 11 12 13 14 15 16 17 18 19 20 21 22 23 24 25 26 27 28 29 30 31 32 33 34 35 36 37 38 39 40 41 42 43 44 45 46 47 48 49 50

000
NZUS59 KLOT 210509
HRRLOT

CHICAGO AREA WEATHER ROUNDUP
NATIONAL WEATHER SERVICE CHICAGO/ROMEOVILLE IL
1200 AM CDT SAT OCT 21 2017

NOTE: "FAIR" INDICATES FEW OR NO CLOUDS BELOW 12,000 FEET WITH NO
SIGNIFICANT WEATHER AND/OR OBSTRUCTIONS TO VISIBILITY.

* THESE STATIONS ARE NOT UNDER NWS QUALITY CONTROL. THEY ALSO MAY NOT
  REPORT WEATHER SUCH AS PRECIPITATION OR FOG.

ILZ005-006-012>014-019>023-210600-
NORTHEAST ILLINOIS

CITY           SKY/WX    TMP DP  RH WIND       PRES   REMARKS
OHARE          CLOUDY    67  48  50 S16       30.05S
MIDWAY         CLOUDY    66  49  54 S12       30.06S
AURORA         MOCLDY    61  49  64 SE8       30.04F
LANSING*       PTCLDY    60  51  72 S8        30.09S
JOLIET*        PTCLDY    64  50  60 S8        30.06F
WAUKEGAN       CLOUDY    67  49  52 S15       30.03S
DUPAGE AIRPORT CLOUDY    62  50  64 S12       30.04F
WHEELING       CLOUDY    67  49  52 S10       30.06S
KANKAKEE*      CLOUDY    61  49  64 S10       30.09S
MORRIS*        MOCLDY    61  49  64 S10       30.04F
LEWIS AIRPORT* CLOUDY    61  49  66 S9        30.06F
NORTHERLY ISL    N/A     68  46  45 S15         N/A
$$

WIZ051-052-058>065-066-070>072-210600-
SOUTHEAST WISCONSIN

CITY           SKY/WX    TMP DP  RH WIND       PRES   REMARKS
MILWAUKEE      CLOUDY    67  47  48 S13       30.03R
KENOSHA*       CLOUDY    65  47  52 S10       30.03F
RACINE*        CLOUDY    66  48  52 S10       30.04S
BURLINGTON     CLOUDY    64  49  57 S10       30.02F
WAUKESHA       MOCLDY    63  45  51 S8        30.03S
WEST BEND      MOCLDY    64  45  48 S12G17    30.00S
$$

INZ001>003-010>013-019-020-210600-
NORTHWEST INDIANA

CITY           SKY/WX    TMP DP  RH WIND       PRES   REMARKS
GARY*          CLOUDY    65  46  50 S7        30.09S
MICHIGAN CITY* NOT AVBL
RENSSELAER*    NOT AVBL
VALPARAISO     CLOUDY    60  49  66 S5        30.11S
$$

LMZ740>746-210600-
SOUTHERN LAKE MICHIGAN

STATION/POSITION TIME  SKY/WX   TEMP WIND        PRES    VSBY
                                AIR  DIR/SP/G
                 (UTC)          (F)  (DEG/KT/KT) (MB)    (MI)
HARRISON CRIB    0440            68  190/ 20/ 21   N/A
BURNHAM HARBOR   0500            67  190/ 16/ 16   N/A
CALUMET HARBOR   0442            66  180/  9/ 13 1017.5F
BURNS HARBOR     0440            65  190/ 12/ 16 1019.3R
MICHIGAN CITY    0440            64  170/ 11/ 14   N/A
$$

ABBREVIATIONS USED IN REMARKS
   TC - TEMPERATURE IN CELSIUS
  WCI - WIND CHILL INDEX
   HX - HEAT INDEX
  VSB - VISIBILITY
$$




USA.gov is the U.S. government's official web portal to all federal, state and local government web resources and services.